User: anonymous   Login
Location: Caltech
(34.1382°N, 118.1253°W)
Time: 06:22:22
(UTC-08:00)
Language:

Cosmos 1833 Rocket - Orbit

View from above orbital plane
View from above orbital plane
View from above satellite
View from above satellite

Ground track
Ground track

The orbit data is extracted from the following two-line orbital elements,

1 17590U 87027B   15026.99607022  .00000189  00000-0  11846-3 0  8816
2 17590 071.0026 186.5031 0005837 216.0275 144.0456 14.16672358440599
Epoch (UTC): 26 January 2015 23:54:20
Eccentricity: 0.0005837
inclination: 71.0026°
perigee height: 832 km
apogee height: 841 km
right ascension of ascending node: 186.5031°
argument of perigee: 216.0275°
revolutions per day: 14.16672358
mean anomaly at epoch: 144.0456°
orbit number at epoch: 44059

The dashed part of the orbit path shows where the satellite is in the earth's shadow,  

DLR